Concordia, KS

12:37 AM CDT on August 26, 2016 (GMT -0500)
Blosser Municipal

Weather History for KCNK - June, 2013

Change the Weather History Date:

Thursday, June 13, 2013

  Actual Average Record
Temperature  
Mean Temperature 69 °F 73 °F  
Max Temperature 82 °F 84 °F 106 °F (1953)
Min Temperature 56 °F 61 °F 43 °F (1969)
Degree Days  
Heating Degree Days 0 0  
Month to date heating degree days 15 11  
Since 1 June heating degree days 15 11  
Since 1 July heating degree days 5514 5406  
Cooling Degree Days 4 8  
Month to date cooling degree days 58 84  
Year to date cooling degree days 161 173  
Since 1 June cooling degree days 58 84  
Growing Degree Days 18 (Base 50)    
Moisture  
Dew Point 55 °F    
Average Humidity 61    
Maximum Humidity 80    
Minimum Humidity 42    
Precipitation  
Precipitation 0.00 in 0.13 in 1.80 in (1986)
Month to date precipitation 0.86 1.73  
Year to date precipitation 12.25 11.72  
Snow  
Snow 0.00 in 0.00 in 0.00 in ()
Month to date snowfall 0.0 0.0  
Year to date snowfall 20.3 13.7  
Since 1 July snowfall 28.8 20.2  
Snow Depth 0.00 in    
Sea Level Pressure  
Sea Level Pressure 30.02 in    
Wind  
Wind Speed 9 mph (ENE)    
Max Wind Speed 20 mph    
Max Gust Speed 28 mph    
Visibility 10 miles    
Events      
T = Trace of Precipitation, MM = Missing Value Source: NWS Daily Summary

Daily Weather History Graph

Daily Weather History Graph

Search for Another Location

Airport or City:

Trip Planner

Search our weather history database for the weather conditions in past years. The results will help you decide how hot, cold, wet, or windy it might be!

Date:

Astronomy

Jun. 13, 2013 Rise Set
Actual Time 6:02 AM CDT 8:59 PM CDT
Civil Twilight 5:30 AM CDT 9:31 PM CDT
Nautical Twilight 4:49 AM CDT 10:12 PM CDT
Astronomical Twilight 4:01 AM CDT 11:00 PM CDT
Moon 10:39 AM CDT (6/13) No Moon Set
Length of Visible Light 16h 01m
Length of Day
14h 56m
Waxing Crescent, 22% of the Moon is Illuminated
Jun 13
Waxing Crescent
Jun 16
First Quarter
Jun 23
Full
Jun 29
Last Quarter
Jul 8
New

Hourly Weather History & Observations

Time (CDT) Temp. Heat Index Dew Point Humidity Pressure Visibility Wind Dir Wind Speed Gust Speed Precip Events Conditions
12:55 AM 64.9 °F - 53.1 °F 65% 30.02 in 10.0 mi NNE 13.8 mph - N/A   Clear
1:55 AM 63.0 °F - 53.1 °F 70% 30.02 in 10.0 mi NNE 15.0 mph 23.0 mph N/A   Clear
2:55 AM 61.0 °F - 52.0 °F 72% 30.02 in 10.0 mi NNE 12.7 mph - N/A   Clear
3:55 AM 59.0 °F - 52.0 °F 78% 30.05 in 10.0 mi NNE 4.6 mph - N/A   Clear
4:55 AM 57.0 °F - 51.1 °F 81% 30.06 in 10.0 mi NW 4.6 mph - N/A   Clear
5:55 AM 57.0 °F - 52.0 °F 83% 30.06 in 10.0 mi NNE 5.8 mph - N/A   Clear
6:55 AM 59.0 °F - 53.1 °F 81% 30.06 in 10.0 mi NE 6.9 mph - N/A   Clear
7:55 AM 62.1 °F - 54.0 °F 75% 30.07 in 10.0 mi NE 8.1 mph - N/A   Clear
8:55 AM 66.9 °F - 54.0 °F 63% 30.08 in 10.0 mi ENE 10.4 mph - N/A   Clear
9:55 AM 70.0 °F - 54.0 °F 57% 30.08 in 10.0 mi ENE 6.9 mph - N/A   Clear
10:55 AM 73.0 °F - 54.0 °F 51% 30.07 in 10.0 mi East 9.2 mph - N/A   Clear
11:55 AM 77.0 °F - 54.0 °F 45% 30.07 in 10.0 mi East 8.1 mph - N/A   Clear
12:55 PM 77.0 °F - 54.0 °F 45% 30.07 in 10.0 mi SE 6.9 mph - N/A   Clear
1:55 PM 81.0 °F 80.8 °F 55.9 °F 42% 30.03 in 10.0 mi SSE 11.5 mph 18.4 mph N/A   Clear
2:55 PM 78.1 °F - 55.0 °F 45% 30.02 in 10.0 mi East 4.6 mph - N/A   Clear
3:55 PM 82.0 °F 81.7 °F 57.0 °F 42% 30.01 in 10.0 mi ENE 11.5 mph - N/A   Clear
4:55 PM 80.1 °F 80.4 °F 57.0 °F 45% 29.99 in 10.0 mi East 15.0 mph 23.0 mph N/A   Clear
5:55 PM 80.1 °F 80.4 °F 57.0 °F 45% 29.99 in 10.0 mi East 11.5 mph 19.6 mph N/A   Clear
6:55 PM 79.0 °F - 57.0 °F 47% 29.96 in 10.0 mi East 13.8 mph 27.6 mph N/A   Clear
7:55 PM 75.9 °F - 57.9 °F 54% 29.95 in 10.0 mi ESE 11.5 mph - N/A   Clear
8:55 PM 72.0 °F - 59.0 °F 64% 29.94 in 10.0 mi SSE 8.1 mph - N/A   Clear
9:55 PM 72.0 °F - 60.1 °F 66% 29.94 in 10.0 mi SSE 11.5 mph - N/A   Clear
10:55 PM 70.0 °F - 60.1 °F 71% 29.95 in 10.0 mi East 3.5 mph - N/A   Clear
11:55 PM 68.0 °F - 60.1 °F 76% 29.94 in 10.0 mi East 6.9 mph - N/A   Clear